Content
SEND FEEDBACK

Daily
Averages
Monthly
Summary
Saudi Arabia

QAL'AT BISHAH, SAUDI ARABIA


Home > Middle East > Saudi Arabia
Elevation: 3795 feet     Latitude: 19 59N     Longitude: 042 37E

WEATHER
 
SELECT A DAY
Number of Records: 165,383;   Date Range: 7/1/96 - 8/30/14
 
SHARE

PRINT THIS DATA

[ ← Previous Day ]
WEATHER ALMANAC - FEBRUARY 13, 2013
[ Next Day → ]
[ °C ]   °F
Weather ElementAverageHighLow
Temperature72.3 °F84.2 °F (3:00 pm)57.2 °F (4:00 am)
Dewpoint36.8 °F53.6 °F (12:00 am)24.8 °F (2:00 pm)
Humidity29.6 %63 % (8:00 am)5 % (3:00 pm)
Barometer30.02 in30.09 in (10:00 am)29.98 in (2:00 am)
Wind Speed7.3 mph20.7 mph (7:00 pm)
Weather ElementAverage
Visibility4.9 mi
Wind DirectionESE (101.5 °)

Weather ElementTotal
Precipitation---
Cooling Degree Days5.7 (Base 65)
Growing Degree Days20.7 (Base 50)
Averaged from 27 records on February 13, 2013
WEATHER CONDITIONS BREAKOUT
WIND DIRECTION BREAKOUT
WEATHER BY HOUR - FEBRUARY 13, 2013
[ °C ]   °F
Local TimeTemperatureDewpointHumidityBarometerVisibilityWind DirectionWind SpeedGust SpeedPrecipitationEventsConditions
12:00 AM69.8 °F53.6 °F56 %30.01 inSouth (190°)4.6 mphClear
1:00 AM68.0 °F51.8 °F56 %30.01 inSouth (190°)4.6 mphClear
2:00 AM60.8 °F44.6 °F55 %29.98 inNW (310°)5.8 mphClear
3:00 AM64.0 °F46.0 °F42 %6.0 miSouth (190°)3.5 mph
3:00 AM64.4 °F46.4 °F52 %29.98 inSouth (190°)3.5 mphClear
4:00 AM57.2 °F42.8 °F59 %29.98 inNE (50°)2.3 mphClear
8:00 AM59.0 °F46.4 °F63 %30.06 inCalmClear
9:00 AM68.0 °F45.0 °F32 %6.0 miWNW (290°)2.3 mph
9:00 AM68.0 °F44.6 °F43 %30.06 inWNW (290°)2.3 mphClear
10:00 AM71.6 °F44.6 °F38 %30.09 inNNW (340°)2.3 mphClear
11:00 AM75.2 °F41.0 °F29 %30.06 inCalmClear
12:00 PM76.0 °F36.0 °F13 %6.0 miNNE (30°)9.2 mph
12:00 PM75.2 °F35.6 °F24 %30.06 inNNE (30°)9.2 mphClear
1:00 PM80.6 °F28.4 °F15 %30.01 inCalmClear
2:00 PM82.4 °F24.8 °F12 %30.01 inCalmClear
3:00 PM84.0 °F25.0 °F5 %6.0 miEast (90°)2.3 mph
3:00 PM84.2 °F24.8 °F11 %29.98 inEast (90°)2.3 mphClear
4:00 PM84.2 °F26.6 °F12 %29.98 inEast (90°)4.6 mphClear
5:00 PM82.4 °F28.4 °F14 %29.98 inNE (40°)2.3 mphClear
6:00 PM78.8 °F32.0 °F18 %29.98 inNE (40°)18.4 mphClear
6:00 PM79.0 °F32.0 °F10 %6.0 miNE (40°)18.4 mph
7:00 PM75.2 °F33.8 °F22 %30.01 in3.1 miNE (40°)20.7 mphWidespread Dust
8:00 PM71.6 °F32.0 °F23 %30.04 inNE (40°)20.7 mphWidespread Dust
9:00 PM69.0 °F32.0 °F15 %3.0 miNE (50°)20.7 mphBlowing Sand
9:00 PM69.8 °F32.0 °F25 %30.06 in3.1 miNE (50°)20.7 mphWidespread Dust
10:00 PM68.0 °F32.0 °F26 %30.06 in5.0 miNNE (30°)9.2 mphClear
11:00 PM66.2 °F32.0 °F28 %30.09 in5.0 miNE (40°)6.9 mphClear
Hourly data recorded from OEBH, located miles away from Qal'at Bishah, Saudi Arabia







STORIES FROM OUR PARTNERS